Homestead, FL

11:02 PM EST on February 12, 2016 (GMT -0500)
Dade County-Homestead Regional

Weather History for KHST - November, 2012

Change the Weather History Date:

Saturday, November 17, 2012

  Actual Average Record
Temperature  
Mean Temperature 72 °F -  
Max Temperature 79 °F 81 °F 90 °F (1947)
Min Temperature 65 °F 62 °F 43 °F (1940)
Cooling Degree Days 7    
Growing Degree Days 22 (Base 50)    
Moisture  
Dew Point 65 °F    
Average Humidity 80    
Maximum Humidity 94    
Minimum Humidity 63    
Precipitation  
Precipitation 0.00 in - - ()
Sea Level Pressure  
Sea Level Pressure 30.06 in    
Wind  
Wind Speed 8 mph (NNE)    
Max Wind Speed 15 mph    
Max Gust Speed 18 mph    
Visibility 10 miles    
Events      
Averages and records for this station are not official NWS values.
T = Trace of Precipitation, MM = Missing Value Source: NWS Daily Summary

Daily Weather History Graph

Daily Weather History Graph

Search for Another Location

Airport or City:

Trip Planner

Search our weather history database for the weather conditions in past years. The results will help you decide how hot, cold, wet, or windy it might be!

Date:

Astronomy

Nov. 17, 2012 Rise Set
Actual Time 6:40 AM EST 5:32 PM EST
Civil Twilight 6:16 AM EST 5:56 PM EST
Nautical Twilight 5:48 AM EST 6:24 PM EST
Astronomical Twilight 5:21 AM EST 6:51 PM EST
Moon 10:23 AM EST (11/17) 9:38 PM EST (11/17)
Length of Visible Light 11h 40m
Length of Day
10h 51m
Waxing Crescent, 20% of the Moon is Illuminated
Nov 17
Waxing Crescent
Nov 20
First Quarter
Nov 28
Full
Dec 6
Last Quarter
Dec 13
New

Hourly Weather History & Observations

Time (EST) Temp. Dew Point Humidity Pressure Visibility Wind Dir Wind Speed Gust Speed Precip Events Conditions
12:55 AM 67.5 °F 65.1 °F 92% 30.04 in 10.0 mi NNW 3.5 mph - N/A   Clear
1:55 AM 67.3 °F 64.9 °F 92% 30.04 in 10.0 mi NNW 8.1 mph - N/A   Partly Cloudy
2:55 AM 66.6 °F 64.2 °F 92% 30.03 in 10.0 mi NNW 6.9 mph - N/A   Clear
3:55 AM 66.2 °F 64.2 °F 93% 30.02 in 10.0 mi NNW 8.1 mph - N/A   Clear
4:55 AM 65.7 °F 63.7 °F 93% 30.04 in 10.0 mi NNW 9.2 mph - N/A   Partly Cloudy
5:55 AM 65.3 °F 63.5 °F 94% 30.06 in 10.0 mi NNW 9.2 mph - N/A   Clear
6:55 AM 65.1 °F 63.0 °F 93% 30.07 in 10.0 mi North 6.9 mph - N/A   Clear
7:55 AM 66.9 °F 64.9 °F 93% 30.09 in 10.0 mi NNE 9.2 mph - N/A   Clear
8:55 AM 71.2 °F 67.1 °F 87% 30.10 in 10.0 mi NNE 8.1 mph - N/A   Partly Cloudy
9:55 AM 75.4 °F 66.6 °F 74% 30.10 in 10.0 mi NNE 12.7 mph - N/A   Clear
10:55 AM 76.8 °F 64.2 °F 65% 30.10 in 10.0 mi NE 15.0 mph - N/A   Clear
11:55 AM 76.1 °F 65.5 °F 70% 30.08 in 10.0 mi ENE 13.8 mph - N/A   Clear
12:55 PM 79.2 °F 65.8 °F 64% 30.06 in 10.0 mi ENE 13.8 mph - N/A   Partly Cloudy
1:55 PM 79.0 °F 65.3 °F 63% 30.04 in 10.0 mi ENE 15.0 mph 18.4 mph N/A   Clear
2:55 PM 78.4 °F 64.9 °F 63% 30.04 in 10.0 mi ENE 13.8 mph - N/A   Clear
3:55 PM 76.5 °F 64.6 °F 67% 30.04 in 10.0 mi ENE 10.4 mph - N/A   Clear
4:55 PM 74.8 °F 64.2 °F 69% 30.04 in 10.0 mi NE 9.2 mph - N/A   Clear
5:55 PM 74.1 °F 65.5 °F 74% 30.04 in 10.0 mi NNE 10.4 mph - N/A   Clear
6:55 PM 73.0 °F 65.7 °F 78% 30.05 in 10.0 mi NNE 6.9 mph - N/A   Partly Cloudy
7:55 PM 72.1 °F 65.5 °F 79% 30.06 in 10.0 mi NNE 5.8 mph - N/A   Clear
8:55 PM 72.1 °F 65.5 °F 79% 30.07 in 10.0 mi North 5.8 mph - N/A   Clear
9:55 PM 71.6 °F 64.9 °F 79% 30.07 in 10.0 mi North 6.9 mph - N/A   Clear
10:55 PM 69.8 °F 63.9 °F 81% 30.07 in 10.0 mi North 4.6 mph - N/A   Clear
11:55 PM 69.8 °F 63.9 °F 81% 30.06 in 10.0 mi NNE 4.6 mph - N/A   Clear